Location: Madrid
(40.4000°N, 3.6830°W)
Time: 01:27:06
(UTC+02:00)

ISS - Pass Details

Date: 21 July 2019
Orbit: 409 x 418 km, 51.6° (Epoch: 23 July)

Event Time Altitude Azimuth Distance (km) Brightness Sun altitude
Rises 23:45:14 0° 285° (WNW) 2,352 0.9 -19.2°
Reaches altitude 10° 23:48:01 10° 310° (NW) 1,488 0.2 -19.5°
Maximum altitude 23:50:01 15° 347° (NNW) 1,228 -0.5 -19.8°
Drops below altitude 10° 23:52:00 10° 24° (NNE) 1,487 -0.6 -20.0°
Sets 23:54:48 0° 49° (NE) 2,348 0.1 -20.3°
